Regional Weather Roundup
Issued by NWS Memphis, TN

Home | Current Version | Previous Version | Text Only | Print | Product List | Glossary On
Versions: 1 2 3 4 5 6 7 8 9 10 11 12 13 14 15 16 17 18 19 20 21 22 23 24 25 26 27 28 29 30 31 32 33 34 35 36 37 38 39 40 41 42 43 44 45 46 47 48 49 50
000
ASUS44 KMEG 240410
RWRMEG
MEMPHIS CWA HOURLY WEATHER ROUNDUP
NATIONAL WEATHER SERVICE MEMPHIS TN
1100 PM CDT MON OCT 23 2017

...WEST TENNESSEE...

CITY           SKY/WX    TMP DP  RH WIND       PRES   REMARKS
MEMPHIS INTL   CLEAR     62  47  57 NW10      29.97R
NWS MEMPHIS      N/A     61 N/A N/A MISG        N/A
JACKSON        CLEAR     60  47  61 W12       29.91R
COVINGTON      CLEAR     61  46  59 W9        29.94R
SOMERVILLE     CLEAR     59  46  63 W5        29.93R
BOLIVAR        CLEAR     59  46  63 SW8G16    29.92R
LEXINGTON      CLEAR     54  46  76 SW10      29.89S
SELMER         CLEAR     55  45  67 SW9G16    29.91S
SAVANNAH       CLEAR     57  45  62 S9        29.91F
DYERSBURG        N/A     60  47  61 W7        29.92R
UNION CITY     MOCLDY    61  48  63 W5        29.88R
PARIS          CLOUDY    57  46  67 W9        29.86R
HUNTINGDON     MOCLDY    57  46  67 W7        29.86S


...EASTERN ARKANSAS...

CITY           SKY/WX    TMP DP  RH WIND       PRES   REMARKS
JONESBORO      PTCLDY    63  46  54 NW9       29.96R
WEST MEMPHIS   CLEAR     61  48  62 VRB3      29.97R
BATESVILLE     PTCLDY    58  44  60 W5        30.02R
NEWPORT        CLOUDY    61  45  55 NW14      30.00R
WALNUT RIDGE   CLEAR     59  44  57 W9        29.97R
BLYTHEVILLE    MOCLDY    62  47  57 NW14      29.93R
SEARCY         CLEAR     63  44  50 NW12G18   30.03R
STUTTGART      CLEAR     60  48  64 NW10      30.02R
PINE BLUFF     CLEAR     62  47  57 W6        30.04R
MONTICELLO     CLEAR     60  47  61 NW7       30.04R


...NORTH MISSISSIPPI...

CITY           SKY/WX    TMP DP  RH WIND       PRES   REMARKS
TUPELO         CLEAR     57  44  62 SW6       29.96S
OXFORD         CLEAR     57  45  62 W13G18    29.99R
BATESVILLE     CLEAR     60  46  59 SW9G17    30.00R
TUNICA           N/A    N/A N/A N/A NW9       30.00R
CLARKSDALE       N/A     59  50  72 W6        30.00R
CORINTH        CLEAR     52  45  76 SW5       29.93S HAZE
GREENWOOD      CLEAR     52  47  83 SW5       30.01R
COLUMBUS       CLEAR     51  48  89 SW7       29.98F
STARKVILLE     CLEAR     46  45  93 S3        30.01S
GOLDEN TRIANGL CLEAR     52  46  80 S6        30.00F


...SOUTHEAST MISSOURI...

CITY           SKY/WX    TMP DP  RH WIND       PRES   REMARKS
KENNETT        MOCLDY    63  43  48 NW15      29.92R
MALDEN         PTCLDY    61  43  51 W10       29.93R
WEST PLAINS    CLEAR     54  38  54 W7        29.99S
POPLAR BLUFF   CLEAR     61  41  47 NW10G20   29.92R
CAPE GIRARDEAU PTCLDY    55  44  66 NW7       29.88R


...NORTHWEST ALABAMA...

CITY           SKY/WX    TMP DP  RH WIND       PRES   REMARKS
MUSCLE SHOALS  CLEAR     53  47  79 S5        29.96F


...MIDDLE TENNESSEE...

CITY           SKY/WX    TMP DP  RH WIND       PRES   REMARKS
NASHVILLE      CLEAR     50  46  86 S7        29.89F
CLARKSVILLE    CLOUDY    55  46  71 S12       29.82F
COLUMBIA       PTCLDY    52  46  82 S8        29.89F


...WESTERN KENTUCKY...

CITY           SKY/WX    TMP DP  RH WIND       PRES   REMARKS
PADUCAH        MOCLDY    59  45  59 NW8       29.86R
FORT CAMPBELL  CLOUDY    55  46  69 S13       29.82F


...CENTRAL ARKANSAS...

CITY           SKY/WX    TMP DP  RH WIND       PRES   REMARKS
LITTLE ROCK    PTCLDY    64  47  53 NW14      30.04R


SKY/WX REPORTED AS FAIR MEANS FEW OR NO CLOUDS BELOW
12 THOUSAND FEET.





USA.gov is the U.S. government's official web portal to all federal, state and local government web resources and services.